AAY3191 KSFB-KATW

Flight info

Callsign AAY3191
Flight time N/A
Altitude 36000
Route DCT WORMS DCT JEEMY DCT ACCHE DCT PAINN DCT SHRKS Q77 TEUFL/N0461F350 Q77 WIGVO DCT IRQ/N0464F360 J99 VXV DCT IIU J89 BAE DCT CORIR DCT
Aircraft A320/M-SDE3FGHIRWY/LB1

Departure

Time 2026-05-08 00:05
Airport Orlando Sanford International Airport (KSFB)

Arrival

Time N/A
Airport Appleton International Airport (KATW)
Time Latitude Longitude Altitude Speed Heading
2026-05-07 23:40 28.77670 -81.24284 64 ft 0 kts 260°
2026-05-07 23:54 28.77671 -81.24281 64 ft 2 kts 261°
2026-05-07 23:54 28.77674 -81.24252 60 ft 4 kts 272°
2026-05-07 23:54 28.77669 -81.24223 57 ft 4 kts 301°
2026-05-07 23:54 28.77654 -81.24208 57 ft 2 kts 359°
2026-05-07 23:55 28.77648 -81.24208 59 ft 0 kts 359°
2026-05-07 23:56 28.77653 -81.24208 64 ft 2 kts 359°
2026-05-07 23:57 28.77687 -81.24208 59 ft 7 kts
2026-05-07 23:57 28.77742 -81.24222 62 ft 10 kts 319°
2026-05-07 23:57 28.77763 -81.24306 60 ft 13 kts 271°
2026-05-07 23:57 28.77763 -81.24423 64 ft 16 kts 269°
2026-05-07 23:58 28.77783 -81.24521 59 ft 12 kts 322°
2026-05-07 23:58 28.77875 -81.24533 59 ft 16 kts 360°
2026-05-07 23:58 28.77988 -81.24534 64 ft 17 kts 360°
2026-05-07 23:58 28.78065 -81.24479 58 ft 14 kts 86°
2026-05-07 23:59 28.78065 -81.24376 64 ft 12 kts 89°
2026-05-07 23:59 28.78066 -81.24289 64 ft 10 kts 89°
2026-05-07 23:59 28.78066 -81.24220 64 ft 8 kts 90°
2026-05-07 23:59 28.78066 -81.24137 64 ft 13 kts 90°
2026-05-08 00:00 28.78066 -81.24015 64 ft 17 kts 89°
2026-05-08 00:00 28.78067 -81.23873 65 ft 19 kts 90°
2026-05-08 00:00 28.78066 -81.23720 65 ft 19 kts 90°
2026-05-08 00:00 28.78067 -81.23578 64 ft 17 kts 89°
2026-05-08 00:01 28.78026 -81.23466 62 ft 15 kts 131°
2026-05-08 00:01 28.78012 -81.23357 60 ft 13 kts 89°
2026-05-08 00:01 28.78012 -81.23256 58 ft 12 kts 90°
2026-05-08 00:01 28.78012 -81.23138 58 ft 17 kts 90°
2026-05-08 00:02 28.78012 -81.22987 63 ft 21 kts 90°
2026-05-08 00:02 28.78012 -81.22828 63 ft 19 kts 90°
2026-05-08 00:02 28.78013 -81.22683 63 ft 17 kts 90°
2026-05-08 00:02 28.78013 -81.22554 58 ft 15 kts 90°
2026-05-08 00:03 28.78013 -81.22440 64 ft 13 kts 90°
2026-05-08 00:03 28.78013 -81.22337 64 ft 15 kts 90°
2026-05-08 00:03 28.78015 -81.22212 62 ft 15 kts 78°
2026-05-08 00:03 28.78088 -81.22173 57 ft 11 kts 359°
2026-05-08 00:04 28.78151 -81.22172 63 ft 8 kts 359°
2026-05-08 00:04 28.78178 -81.22235 63 ft 13 kts 269°
2026-05-08 00:04 28.78178 -81.22490 62 ft 63 kts 270°
2026-05-08 00:04 28.78177 -81.23239 60 ft 122 kts 270°
2026-05-08 00:05 28.78176 -81.24394 94 ft 165 kts 270°
2026-05-08 00:05 28.78177 -81.25701 631 ft 168 kts 271°
2026-05-08 00:05 28.78140 -81.27016 1261 ft 166 kts 268°
2026-05-08 00:05 28.78071 -81.28315 1883 ft 169 kts 269°
2026-05-08 00:06 28.78021 -81.29720 2132 ft 188 kts 275°
2026-05-08 00:06 28.78531 -81.31160 2331 ft 211 kts 311°
2026-05-08 00:06 28.79864 -81.32034 2572 ft 238 kts 338°
2026-05-08 00:06 28.81536 -81.32570 2922 ft 258 kts 343°
2026-05-08 00:07 28.83311 -81.33054 3558 ft 265 kts 345°
2026-05-08 00:07 28.85129 -81.33529 4309 ft 270 kts 344°
2026-05-08 00:07 28.86971 -81.34013 5077 ft 273 kts 344°
2026-05-08 00:07 28.88829 -81.34516 5818 ft 276 kts 345°
2026-05-08 00:08 28.90679 -81.35025 6541 ft 279 kts 343°
2026-05-08 00:08 28.92571 -81.35553 7238 ft 281 kts 343°
2026-05-08 00:08 28.94481 -81.36093 7927 ft 284 kts 343°
2026-05-08 00:08 28.96405 -81.36640 8650 ft 286 kts 342°
2026-05-08 00:09 28.98344 -81.37188 9396 ft 287 kts 342°
2026-05-08 00:09 29.00284 -81.37738 10102 ft 289 kts 342°
2026-05-08 00:09 29.02223 -81.38531 10322 ft 305 kts 330°
2026-05-08 00:09 29.04186 -81.39662 10444 ft 327 kts 330°
2026-05-08 00:10 29.06247 -81.40858 10603 ft 345 kts 330°
2026-05-08 00:10 29.08424 -81.42090 11055 ft 354 kts 333°
2026-05-08 00:10 29.10799 -81.42934 11585 ft 363 kts 345°
2026-05-08 00:10 29.13337 -81.43254 12143 ft 370 kts 351°
2026-05-08 00:11 29.15914 -81.43487 12692 ft 374 kts 351°
2026-05-08 00:11 29.18519 -81.43726 13226 ft 378 kts 351°
2026-05-08 00:11 29.21153 -81.43974 13769 ft 381 kts 350°
2026-05-08 00:11 29.23810 -81.44226 14262 ft 384 kts 350°
2026-05-08 00:12 29.26444 -81.44478 14785 ft 386 kts 350°
2026-05-08 00:12 29.29123 -81.44730 15376 ft 386 kts 349°
2026-05-08 00:12 29.31803 -81.44983 15934 ft 387 kts 349°
2026-05-08 00:12 29.34492 -81.45242 16484 ft 388 kts 349°
2026-05-08 00:13 29.37191 -81.45503 17028 ft 390 kts 349°
2026-05-08 00:13 29.39901 -81.45765 17573 ft 392 kts 348°
2026-05-08 00:13 29.42625 -81.46027 18120 ft 394 kts 348°
2026-05-08 00:13 29.45357 -81.46289 18601 ft 396 kts 348°
2026-05-08 00:14 29.48075 -81.46550 19034 ft 398 kts 348°
2026-05-08 00:14 29.50845 -81.46814 19480 ft 401 kts 348°
2026-05-08 00:14 29.53631 -81.47079 19895 ft 404 kts 348°
2026-05-08 00:14 29.56442 -81.47347 20328 ft 406 kts 348°
2026-05-08 00:15 29.59269 -81.47618 20734 ft 409 kts 348°
2026-05-08 00:15 29.62120 -81.47884 21143 ft 412 kts 348°
2026-05-08 00:15 29.64985 -81.48142 21525 ft 415 kts 348°
2026-05-08 00:15 29.67871 -81.48399 21902 ft 418 kts 348°
2026-05-08 00:16 29.70781 -81.48659 22280 ft 420 kts 348°
2026-05-08 00:16 29.73666 -81.48919 22644 ft 423 kts 348°
2026-05-08 00:16 29.76603 -81.49185 23005 ft 425 kts 348°
2026-05-08 00:16 29.79563 -81.49453 23357 ft 428 kts 348°
2026-05-08 00:17 29.82538 -81.49723 23681 ft 430 kts 348°
2026-05-08 00:17 29.85526 -81.49994 23972 ft 432 kts 348°
2026-05-08 00:17 29.88518 -81.50334 24252 ft 429 kts 343°
2026-05-08 00:17 29.91390 -81.51145 24519 ft 423 kts 335°
2026-05-08 00:18 29.94209 -81.52155 24797 ft 425 kts 335°
2026-05-08 00:18 29.96997 -81.53152 25068 ft 426 kts 335°
2026-05-08 00:18 29.99833 -81.54168 25345 ft 428 kts 335°
2026-05-08 00:18 30.02686 -81.55188 25607 ft 430 kts 335°
2026-05-08 00:19 30.05546 -81.56211 25868 ft 432 kts 335°
2026-05-08 00:19 30.08418 -81.57235 26135 ft 433 kts 335°
2026-05-08 00:19 30.11308 -81.58266 26390 ft 435 kts 335°
2026-05-08 00:19 30.14200 -81.59303 26678 ft 436 kts 335°
2026-05-08 00:20 30.17102 -81.60345 26922 ft 438 kts 335°
2026-05-08 00:20 30.20020 -81.61396 27156 ft 440 kts 335°
2026-05-08 00:20 30.22912 -81.62436 27388 ft 442 kts 335°
2026-05-08 00:20 30.25853 -81.63488 27611 ft 443 kts 335°
2026-05-08 00:21 30.28802 -81.64546 27831 ft 445 kts 335°
2026-05-08 00:21 30.31766 -81.65612 28060 ft 447 kts 335°
2026-05-08 00:21 30.34740 -81.66683 28272 ft 448 kts 335°
2026-05-08 00:21 30.37720 -81.67756 28451 ft 449 kts 335°
2026-05-08 00:22 30.40711 -81.68834 28642 ft 451 kts 335°
2026-05-08 00:22 30.43667 -81.69900 28825 ft 452 kts 335°
2026-05-08 00:22 30.46670 -81.70989 29047 ft 452 kts 335°
2026-05-08 00:22 30.49672 -81.72076 29317 ft 451 kts 335°
2026-05-08 00:23 30.52668 -81.73158 29587 ft 451 kts 335°
2026-05-08 00:23 30.55660 -81.74235 29855 ft 450 kts 335°
2026-05-08 00:23 30.58651 -81.75314 30093 ft 450 kts 335°
2026-05-08 00:23 30.61648 -81.76386 30306 ft 451 kts 337°
2026-05-08 00:24 30.64745 -81.77137 30535 ft 457 kts 342°
2026-05-08 00:24 30.67873 -81.77765 30762 ft 456 kts 342°
2026-05-08 00:24 30.70961 -81.78376 31004 ft 456 kts 341°
2026-05-08 00:24 30.74080 -81.78995 31236 ft 455 kts 341°
2026-05-08 00:25 30.77199 -81.79620 31461 ft 454 kts 341°